{"data":{"norad_id":47627,"epoch":"2026-05-25T04:45:17.929152Z","epoch_age_seconds":55000,"freshness":"FRESH","line1":"1 47627U 21012H   26145.19812418  .00099024  00000+0  11940-2 0  9994","line2":"2 47627  53.0480 315.4567 0002980 166.5288 193.5804 15.60006537293359","mean_motion":15.60006537,"eccentricity":0.000298,"inclination_deg":53.048,"raan_deg":315.4567,"arg_perigee_deg":166.5288,"mean_anomaly_deg":193.5804,"bstar":0.001194,"rev_number":29335,"period_min":92.307305504579,"perigee_km":385.62197897244,"apogee_km":389.6543809797,"semimajor_km":6765.7751799761,"source":"CELESTRAK","updated_at":"2026-05-25T13:38:16.560083Z"}}